Dades meteomassalio
Diari Summary for Noviembre 25, 2017 Units:  English    Metric   Both
« Previous Day
Next Day »
Diari Semanal Mensual Anual Personalitzat
  Maxima: Minima: Mijana:
Temperatura: TemperatureC °F 3.3 °F 9.5 °F
Rosada: DewpointC °F -2.0 °F 3.2 °F
Humitat: Humidity % 55 % 65 %
Velocitat del vent: WindSpeedKMH mph 0.0 mph 22.3 mph
Racha vent: WindSpeedGustKMH mph - -
Vent:- - NW
Pressio: PressurehPa in 1019.5 in -
Pluja: 0.0 in    
Historical Graphs
 
 
Tabular Data for Noviembre 25, 2017
Time Temperature Dew Point Pressure Wind Wind Speed Wind Gust Humidity Rainfall Rate (Hourly) solar Conditions
TemperatureC °F DewpointC °F PressurehPa in Calm     Humidity % HourlyPrecipMM in SolarRadiationWatts/m^2 W/m2 Conditions
00:02 5.6 °F 1.4 °F 1021.2 in Calm     75 % 0.0 in 0.0 W/m2 CLR
00:07 5.6 °F 1.4 °F 1021.2 in Calm     75 % 0.0 in 0.0 W/m2 CLR
00:12 5.6 °F 1.7 °F 1021.2 in Calm     76 % 0.0 in 0.0 W/m2 CLR
00:17 5.6 °F 1.7 °F 1021.2 in Calm     76 % 0.0 in 0.0 W/m2 CLR
00:22 5.6 °F 1.7 °F 1021.2 in Calm     76 % 0.0 in 0.0 W/m2 CLR
00:23 5.6 °F 1.7 °F 1021.2 in Calm     76 % 0.0 in 0.0 W/m2 CLR
00:28 5.6 °F 1.1 °F 1020.9 in Calm     73 % 0.0 in 0.0 W/m2 CLR
00:33 5.6 °F 1.3 °F 1020.9 in Calm     74 % 0.0 in 0.0 W/m2 CLR
00:38 5.6 °F 1.3 °F 1020.9 in Calm     74 % 0.0 in 0.0 W/m2 CLR
00:43 5.0 °F 0.9 °F 1020.9 in Calm     75 % 0.0 in 0.0 W/m2 CLR
00:48 5.0 °F 0.9 °F 1020.9 in Calm     75 % 0.0 in 0.0 W/m2 CLR
00:53 5.0 °F 0.9 °F 1020.9 in Calm     75 % 0.0 in 0.0 W/m2 CLR
00:58 5.0 °F 0.9 °F 1020.9 in Calm     75 % 0.0 in 0.0 W/m2 CLR
01:03 5.0 °F 0.9 °F 1020.9 in Calm     75 % 0.0 in 0.0 W/m2 CLR
01:08 5.0 °F 1.1 °F 1020.9 in Calm     76 % 0.0 in 0.0 W/m2 CLR
01:13 5.0 °F 1.3 °F 1020.9 in Calm     77 % 0.0 in 0.0 W/m2 CLR
01:18 5.0 °F 1.1 °F 1020.9 in Calm     76 % 0.0 in 0.0 W/m2 CLR
01:23 5.0 °F 1.1 °F 1020.5 in Calm     76 % 0.0 in 0.0 W/m2 CLR
01:28 5.0 °F 1.1 °F 1020.5 in Calm     76 % 0.0 in 0.0 W/m2 CLR
01:33 5.0 °F 1.1 °F 1020.5 in Calm     76 % 0.0 in 0.0 W/m2 CLR
01:38 5.0 °F 1.1 °F 1020.5 in Calm     76 % 0.0 in 0.0 W/m2 CLR
01:43 5.0 °F 1.1 °F 1020.5 in Calm     76 % 0.0 in 0.0 W/m2 CLR
01:48 4.4 °F 0.4 °F 1020.5 in Calm     75 % 0.0 in 0.0 W/m2 CLR
01:53 5.0 °F 0.9 °F 1020.5 in Calm     75 % 0.0 in 0.0 W/m2 CLR
01:58 4.4 °F 0.2 °F 1020.5 in Calm     74 % 0.0 in 0.0 W/m2 CLR
02:03 4.4 °F 0.0 °F 1020.5 in Calm     73 % 0.0 in 0.0 W/m2 CLR
02:08 4.4 °F -0.2 °F 1020.2 in Calm     72 % 0.0 in 0.0 W/m2 CLR
02:13 4.4 °F -0.2 °F 1020.2 in Calm     72 % 0.0 in 0.0 W/m2 CLR
02:18 4.4 °F -0.2 °F 1020.5 in Calm     72 % 0.0 in 0.0 W/m2 CLR
02:23 4.4 °F -0.2 °F 1020.2 in Calm     72 % 0.0 in 0.0 W/m2 CLR
02:28 5.0 °F 0.2 °F 1020.2 in Calm     71 % 0.0 in 0.0 W/m2 CLR
02:33 5.0 °F 0.0 °F 1020.2 in Calm     70 % 0.0 in 0.0 W/m2 CLR
02:38 4.4 °F -0.3 °F 1020.2 in Calm     71 % 0.0 in 0.0 W/m2 CLR
02:43 4.4 °F 0.0 °F 1020.2 in Calm     73 % 0.0 in 0.0 W/m2 CLR
02:48 3.9 °F -0.3 °F 1020.2 in Calm     74 % 0.0 in 0.0 W/m2 CLR
02:53 4.4 °F 0.4 °F 1020.2 in Calm     75 % 0.0 in 0.0 W/m2 CLR
02:58 4.4 °F 0.4 °F 1020.2 in Calm     75 % 0.0 in 0.0 W/m2 CLR
03:03 4.4 °F 0.4 °F 1020.2 in Calm     75 % 0.0 in 0.0 W/m2 CLR
03:08 4.4 °F 0.6 °F 1019.9 in Calm     76 % 0.0 in 0.0 W/m2 CLR
03:13 4.4 °F 0.4 °F 1020.2 in Calm     75 % 0.0 in 0.0 W/m2 CLR
03:18 3.9 °F -0.3 °F 1019.9 in Calm     74 % 0.0 in 0.0 W/m2 CLR
03:23 4.4 °F 0.4 °F 1019.9 in Calm     75 % 0.0 in 0.0 W/m2 CLR
03:28 3.9 °F -0.3 °F 1019.9 in Calm     74 % 0.0 in 0.0 W/m2 CLR
03:33 3.9 °F -0.2 °F 1019.9 in Calm     75 % 0.0 in 0.0 W/m2 CLR
03:38 4.4 °F 0.4 °F 1019.9 in Calm     75 % 0.0 in 0.0 W/m2 CLR
03:48 4.4 °F -0.2 °F 1019.9 in Calm     72 % 0.0 in 0.0 W/m2 CLR
03:53 4.4 °F -0.3 °F 1019.9 in Calm     71 % 0.0 in 0.0 W/m2 CLR
03:58 5.0 °F -0.4 °F 1019.9 in Calm     68 % 0.0 in 0.0 W/m2 CLR
04:03 5.0 °F -0.6 °F 1019.9 in Calm     67 % 0.0 in 0.0 W/m2 CLR
04:08 4.4 °F -1.2 °F 1019.9 in Calm     67 % 0.0 in 0.0 W/m2 CLR
04:19 3.9 °F -1.5 °F 1019.9 in Calm     68 % 0.0 in 0.0 W/m2 CLR
04:21 3.9 °F -1.5 °F 1019.9 in Calm     68 % 0.0 in 0.0 W/m2 CLR
04:23 4.4 °F -0.9 °F 1019.9 in Calm     68 % 0.0 in 0.0 W/m2 CLR
04:25 4.4 °F -0.9 °F 1019.9 in Calm     68 % 0.0 in 0.0 W/m2 CLR
04:26 4.4 °F -0.9 °F 1019.9 in Calm     68 % 0.0 in 0.0 W/m2 CLR
04:31 4.4 °F -0.9 °F 1019.9 in Calm     68 % 0.0 in 0.0 W/m2 CLR
04:36 4.4 °F -1.2 °F 1019.9 in Calm     67 % 0.0 in 0.0 W/m2 CLR
04:41 3.9 °F -1.7 °F 1019.9 in Calm     67 % 0.0 in 0.0 W/m2 CLR
04:43 3.9 °F -1.7 °F 1019.9 in Calm     67 % 0.0 in 0.0 W/m2 CLR
04:48 3.9 °F -1.5 °F 1019.9 in Calm     68 % 0.0 in 0.0 W/m2 CLR
04:53 3.9 °F -1.5 °F 1019.9 in Calm     68 % 0.0 in 0.0 W/m2 CLR
05:03 4.4 °F -0.9 °F 1019.5 in Calm     68 % 0.0 in 0.0 W/m2 CLR
05:08 4.4 °F -0.9 °F 1019.5 in Calm     68 % 0.0 in 0.0 W/m2 CLR
05:13 4.4 °F -1.2 °F 1019.5 in Calm     67 % 0.0 in 0.0 W/m2 CLR
05:18 3.9 °F -1.3 °F 1019.5 in Calm     69 % 0.0 in 0.0 W/m2 CLR
05:23 3.9 °F -1.1 °F 1019.5 in Calm     70 % 0.0 in 0.0 W/m2 CLR
05:33 3.9 °F -0.9 °F 1019.5 in Calm     71 % 0.0 in 0.0 W/m2 CLR
05:38 4.4 °F -0.3 °F 1019.5 in Calm     71 % 0.0 in 0.0 W/m2 CLR
05:43 3.9 °F -1.1 °F 1019.5 in Calm     70 % 0.0 in 0.0 W/m2 CLR
05:48 3.9 °F -1.3 °F 1019.5 in Calm     69 % 0.0 in 0.0 W/m2 CLR
05:53 3.9 °F -1.3 °F 1019.5 in Calm     69 % 0.0 in 0.0 W/m2 CLR
05:58 3.9 °F -1.1 °F 1019.5 in Calm     70 % 0.0 in 0.0 W/m2 CLR
06:03 4.4 °F -0.8 °F 1019.5 in Calm     69 % 0.0 in 0.0 W/m2 CLR
06:08 4.4 °F -0.8 °F 1019.5 in Calm     69 % 0.0 in 0.0 W/m2 CLR
06:13 3.9 °F -1.3 °F 1019.5 in Calm     69 % 0.0 in 0.0 W/m2 CLR
06:18 3.9 °F -1.1 °F 1019.5 in Calm     70 % 0.0 in 0.0 W/m2 CLR
06:23 3.9 °F -1.3 °F 1019.5 in Calm     69 % 0.0 in 0.0 W/m2 CLR
06:28 3.9 °F -1.3 °F 1019.5 in Calm     69 % 0.0 in 0.0 W/m2 CLR
06:33 3.9 °F -1.3 °F 1019.9 in Calm     69 % 0.0 in 0.0 W/m2 CLR
06:38 4.4 °F -0.8 °F 1019.9 in Calm     69 % 0.0 in 0.0 W/m2 CLR
06:43 4.4 °F -0.8 °F 1019.9 in Calm     69 % 0.0 in 0.0 W/m2 CLR
06:48 4.4 °F -0.9 °F 1019.5 in Calm     68 % 0.0 in 0.0 W/m2 CLR
06:53 4.4 °F -0.9 °F 1019.9 in Calm     68 % 0.0 in 0.0 W/m2 CLR
06:58 4.4 °F -0.9 °F 1019.5 in Calm     68 % 0.0 in 0.0 W/m2 CLR
07:03 4.4 °F -0.9 °F 1019.5 in Calm     68 % 0.0 in 0.0 W/m2 CLR
07:08 4.4 °F -0.8 °F 1019.5 in Calm     69 % 0.0 in 0.0 W/m2 CLR
07:13 4.4 °F -0.6 °F 1019.5 in Calm     70 % 0.0 in 0.0 W/m2 CLR
07:18 4.4 °F -0.6 °F 1019.9 in Calm     70 % 0.0 in 0.0 W/m2 CLR
07:23 4.4 °F -0.6 °F 1019.9 in Calm     70 % 0.0 in 0.0 W/m2 CLR
07:28 3.9 °F -1.3 °F 1019.9 in Calm     69 % 0.0 in 0.0 W/m2 CLR
07:33 3.9 °F -1.5 °F 1019.9 in Calm     68 % 0.0 in 0.0 W/m2 CLR
07:38 3.9 °F -1.5 °F 1019.9 in Calm     68 % 0.0 in 0.0 W/m2 CLR
07:43 3.9 °F -1.5 °F 1019.9 in Calm     68 % 0.0 in 0.0 W/m2 CLR
07:48 3.3 °F -2.0 °F 1019.9 in Calm     68 % 0.0 in 0.0 W/m2 OVC
07:53 3.3 °F -2.0 °F 1020.2 in Calm     68 % 0.0 in 0.0 W/m2 OVC
07:58 3.3 °F -1.8 °F 1020.2 in Calm     69 % 0.0 in 0.0 W/m2 OVC
08:03 3.9 °F -1.3 °F 1020.5 in North 14.8 mph 14.8 mph 69 % 0.0 in 0.0 W/m2 OVC
08:09 4.4 °F 0.0 °F 1020.5 in NNW 27.8 mph 27.8 mph 73 % 0.0 in 0.0 W/m2 OVC
08:14 4.4 °F -0.3 °F 1020.5 in North 27.8 mph 27.8 mph 71 % 0.0 in 5.0 W/m2 OVC
08:19 5.6 °F 0.3 °F 1020.9 in NNW 25.9 mph 25.9 mph 69 % 0.0 in 5.0 W/m2 OVC
08:24 8.3 °F 2.8 °F 1020.9 in WNW 25.9 mph 25.9 mph 68 % 0.0 in 7.0 W/m2 BKN
08:29 10.0 °F 4.6 °F 1020.9 in NW 18.5 mph 18.5 mph 69 % 0.0 in 11.0 W/m2 BKN
08:34 10.6 °F 5.5 °F 1020.9 in NNW 20.9 mph 20.9 mph 71 % 0.0 in 12.0 W/m2 BKN
08:39 11.1 °F 6.4 °F 1020.9 in NW 18.5 mph 18.5 mph 73 % 0.0 in 14.0 W/m2 BKN
08:44 11.1 °F 6.7 °F 1021.2 in NW 18.5 mph 18.5 mph 74 % 0.0 in 16.0 W/m2 BKN
08:49 11.1 °F 6.8 °F 1021.2 in NNW 17.7 mph 17.7 mph 75 % 0.0 in 18.0 W/m2 BKN
08:54 11.1 °F 7.1 °F 1021.2 in NW 18.5 mph 18.5 mph 76 % 0.0 in 19.0 W/m2 BKN
08:59 11.1 °F 7.2 °F 1021.6 in NW 9.3 mph 9.3 mph 77 % 0.0 in 19.0 W/m2 BKN
09:04 11.1 °F 7.2 °F 1021.6 in NW 16.7 mph 16.7 mph 77 % 0.0 in 19.0 W/m2 BKN
09:09 11.1 °F 7.2 °F 1021.6 in NW 14.8 mph 14.8 mph 77 % 0.0 in 26.0 W/m2 BKN
09:14 11.1 °F 7.2 °F 1021.6 in WNW 14.8 mph 14.8 mph 77 % 0.0 in 47.0 W/m2 BKN
09:19 11.1 °F 7.2 °F 1021.6 in NW 22.2 mph 22.2 mph 77 % 0.0 in 67.0 W/m2 SCT
09:24 11.7 °F 7.6 °F 1021.9 in NW 20.4 mph 20.4 mph 76 % 0.0 in 105.0 W/m2 FEW
09:29 12.2 °F 7.9 °F 1021.9 in WNW 18.5 mph 18.5 mph 75 % 0.0 in 165.0 W/m2 CLR
09:34 12.8 °F 8.4 °F 1022.2 in NW 22.2 mph 22.2 mph 75 % 0.0 in 207.0 W/m2 CLR
09:39 12.8 °F 8.3 °F 1022.2 in NNW 18.5 mph 18.5 mph 74 % 0.0 in 192.0 W/m2 CLR
09:44 13.3 °F 8.6 °F 1022.2 in NNW 16.7 mph 16.7 mph 73 % 0.0 in 262.0 W/m2 CLR
09:49 13.9 °F 8.9 °F 1022.2 in NW 22.2 mph 22.2 mph 72 % 0.0 in 323.0 W/m2 CLR
09:51 13.9 °F 8.9 °F 1022.2 in NNW 18.5 mph 18.5 mph 72 % 0.0 in 318.0 W/m2 CLR
09:56 14.4 °F 9.2 °F 1022.2 in NW 22.2 mph 22.2 mph 71 % 0.0 in 311.0 W/m2 CLR
10:01 14.4 °F 9.1 °F 1022.2 in NNW 27.8 mph 27.8 mph 70 % 0.0 in 118.0 W/m2 CLR
10:06 13.9 °F 8.7 °F 1022.2 in NNW 29.6 mph 29.6 mph 71 % 0.0 in 93.0 W/m2 CLR
10:11 13.9 °F 8.9 °F 1022.2 in NNW 27.8 mph 27.8 mph 72 % 0.0 in 155.0 W/m2 CLR
10:16 13.9 °F 8.9 °F 1022.2 in NW 33.3 mph 33.3 mph 72 % 0.0 in 200.0 W/m2 CLR
10:21 13.9 °F 8.7 °F 1022.2 in NW 31.5 mph 31.5 mph 71 % 0.0 in 348.0 W/m2 CLR
10:26 14.4 °F 9.1 °F 1022.2 in North 24.1 mph 24.1 mph 70 % 0.0 in 246.0 W/m2 CLR
10:31 14.4 °F 9.1 °F 1022.6 in NNW 18.5 mph 18.5 mph 70 % 0.0 in 209.0 W/m2 CLR
10:36 14.4 °F 8.8 °F 1022.6 in NNW 27.4 mph 27.4 mph 69 % 0.0 in 232.0 W/m2 CLR
10:41 14.4 °F 8.8 °F 1022.6 in NNW 24.1 mph 24.1 mph 69 % 0.0 in 288.0 W/m2 CLR
10:46 15.0 °F 9.1 °F 1022.6 in NNW 27.8 mph 27.8 mph 68 % 0.0 in 352.0 W/m2 CLR
10:51 15.0 °F 8.9 °F 1022.6 in NNW 42.6 mph 42.6 mph 67 % 0.0 in 309.0 W/m2 CLR
10:56 15.0 °F 9.1 °F 1022.6 in NW 31.5 mph 31.5 mph 68 % 0.0 in 503.0 W/m2 CLR
11:01 15.6 °F 9.2 °F 1022.6 in NNW 35.2 mph 35.2 mph 66 % 0.0 in 515.0 W/m2 CLR
11:06 15.0 °F 8.7 °F 1022.6 in NW 37.0 mph 37.0 mph 66 % 0.0 in 490.0 W/m2 CLR
11:11 15.0 °F 8.7 °F 1022.6 in North 42.6 mph 42.6 mph 66 % 0.0 in 439.0 W/m2 CLR
11:16 15.6 °F 9.2 °F 1022.6 in North 45.1 mph 45.1 mph 66 % 0.0 in 605.0 W/m2 CLR
11:22 15.6 °F 9.0 °F 1022.6 in NNW 42.6 mph 42.6 mph 65 % 0.0 in 619.0 W/m2 CLR
11:30 16.1 °F 9.5 °F 1022.2 in NW 42.6 mph 42.6 mph 65 % 0.0 in 564.0 W/m2 CLR
11:35 16.1 °F 9.3 °F 1022.2 in NW 37.0 mph 37.0 mph 64 % 0.0 in 510.0 W/m2 CLR
11:40 16.1 °F 9.1 °F 1022.2 in NW 53.1 mph 53.1 mph 63 % 0.0 in 536.0 W/m2 CLR
11:45 16.1 °F 8.8 °F 1022.2 in NNW 31.5 mph 31.5 mph 62 % 0.0 in 478.0 W/m2 CLR
11:50 16.1 °F 8.6 °F 1022.2 in NW 40.7 mph 40.7 mph 61 % 0.0 in 578.0 W/m2 CLR
12:00 16.7 °F 8.3 °F 1022.2 in NW 40.7 mph 40.7 mph 58 % 0.0 in 473.0 W/m2 CLR
12:05 16.1 °F 8.3 °F 1022.2 in NNW 48.1 mph 48.1 mph 60 % 0.0 in 260.0 W/m2 CLR
12:10 16.1 °F 8.6 °F 1021.9 in NW 43.4 mph 43.4 mph 61 % 0.0 in 510.0 W/m2 CLR
12:15 16.1 °F 8.6 °F 1021.9 in NNW 42.6 mph 42.6 mph 61 % 0.0 in 496.0 W/m2 CLR
12:20 16.1 °F 8.6 °F 1021.9 in NW 40.2 mph 40.2 mph 61 % 0.0 in 388.0 W/m2 CLR
12:25 16.1 °F 8.1 °F 1021.9 in NNW 46.3 mph 46.3 mph 59 % 0.0 in 469.0 W/m2 CLR
12:30 16.1 °F 8.1 °F 1021.9 in NW 42.6 mph 42.6 mph 59 % 0.0 in 468.0 W/m2 CLR
12:35 16.1 °F 8.1 °F 1021.9 in NW 40.7 mph 40.7 mph 59 % 0.0 in 468.0 W/m2 CLR
12:40 16.1 °F 7.8 °F 1021.9 in NNW 44.4 mph 44.4 mph 58 % 0.0 in 462.0 W/m2 CLR
12:45 15.6 °F 7.3 °F 1021.6 in NNW 37.0 mph 37.0 mph 58 % 0.0 in 468.0 W/m2 CLR
12:50 16.1 °F 7.8 °F 1021.6 in NW 50.0 mph 50.0 mph 58 % 0.0 in 492.0 W/m2 CLR
12:55 16.1 °F 8.1 °F 1021.9 in NNW 44.4 mph 44.4 mph 59 % 0.0 in 480.0 W/m2 CLR
13:00 16.1 °F 7.8 °F 1021.6 in NW 40.2 mph 40.2 mph 58 % 0.0 in 487.0 W/m2 CLR
13:05 16.1 °F 7.6 °F 1021.9 in NW 44.4 mph 44.4 mph 57 % 0.0 in 529.0 W/m2 CLR
13:10 16.7 °F 8.1 °F 1021.9 in NNW 38.9 mph 38.9 mph 57 % 0.0 in 218.0 W/m2 CLR
13:15 16.1 °F 7.8 °F 1021.9 in NW 40.7 mph 40.7 mph 58 % 0.0 in 281.0 W/m2 CLR
13:20 16.1 °F 7.8 °F 1021.9 in NNW 40.7 mph 40.7 mph 58 % 0.0 in 455.0 W/m2 CLR
13:25 16.1 °F 7.6 °F 1021.9 in North 35.2 mph 35.2 mph 57 % 0.0 in 439.0 W/m2 CLR
13:26 16.1 °F 7.6 °F 1021.9 in North 43.4 mph 43.4 mph 57 % 0.0 in 520.0 W/m2 CLR
13:31 16.1 °F 7.6 °F 1021.9 in North 37.0 mph 37.0 mph 57 % 0.0 in 213.0 W/m2 CLR
13:36 15.6 °F 7.3 °F 1021.9 in NNW 46.3 mph 46.3 mph 58 % 0.0 in 220.0 W/m2 CLR
13:41 15.6 °F 7.3 °F 1022.2 in North 40.7 mph 40.7 mph 58 % 0.0 in 218.0 W/m2 CLR
13:46 15.0 °F 7.1 °F 1021.9 in NW 33.8 mph 33.8 mph 59 % 0.0 in 536.0 W/m2 CLR
13:51 15.6 °F 7.3 °F 1022.2 in NNW 29.6 mph 29.6 mph 58 % 0.0 in 123.0 W/m2 CLR
13:56 15.0 °F 7.1 °F 1022.2 in North 40.7 mph 40.7 mph 59 % 0.0 in 125.0 W/m2 CLR
14:01 14.4 °F 6.5 °F 1022.2 in NNW 32.2 mph 32.2 mph 59 % 0.0 in 97.0 W/m2 CLR
14:06 14.4 °F 6.8 °F 1022.6 in NNW 25.9 mph 25.9 mph 60 % 0.0 in 132.0 W/m2 CLR
14:11 14.4 °F 6.8 °F 1022.6 in North 46.3 mph 46.3 mph 60 % 0.0 in 146.0 W/m2 CLR
14:16 14.4 °F 6.8 °F 1022.6 in WNW 40.7 mph 40.7 mph 60 % 0.0 in 153.0 W/m2 CLR
14:21 14.4 °F 7.0 °F 1022.6 in NW 38.9 mph 38.9 mph 61 % 0.0 in 167.0 W/m2 CLR
14:26 14.4 °F 6.8 °F 1022.6 in NW 37.0 mph 37.0 mph 60 % 0.0 in 155.0 W/m2 CLR
14:32 14.4 °F 6.8 °F 1022.6 in NNW 42.6 mph 42.6 mph 60 % 0.0 in 113.0 W/m2 CLR
14:37 14.4 °F 6.8 °F 1022.6 in NW 31.5 mph 31.5 mph 60 % 0.0 in 104.0 W/m2 CLR
14:42 14.4 °F 7.0 °F 1022.9 in NNW 31.5 mph 31.5 mph 61 % 0.0 in 109.0 W/m2 CLR
14:47 13.9 °F 6.7 °F 1022.6 in NNW 38.9 mph 38.9 mph 62 % 0.0 in 118.0 W/m2 CLR
14:52 13.9 °F 6.5 °F 1022.9 in NNW 40.7 mph 40.7 mph 61 % 0.0 in 118.0 W/m2 CLR
14:57 14.4 °F 7.0 °F 1022.9 in NW 33.3 mph 33.3 mph 61 % 0.0 in 127.0 W/m2 CLR
15:02 14.4 °F 6.8 °F 1022.9 in NNW 35.4 mph 35.4 mph 60 % 0.0 in 114.0 W/m2 CLR
15:07 14.4 °F 7.0 °F 1022.9 in NW 27.8 mph 27.8 mph 61 % 0.0 in 127.0 W/m2 CLR
15:12 14.4 °F 6.8 °F 1022.9 in NNW 40.7 mph 40.7 mph 60 % 0.0 in 146.0 W/m2 CLR
15:17 14.4 °F 6.8 °F 1022.9 in NNW 42.6 mph 42.6 mph 60 % 0.0 in 139.0 W/m2 CLR
15:22 14.4 °F 6.8 °F 1022.9 in North 48.1 mph 48.1 mph 60 % 0.0 in 149.0 W/m2 CLR
15:27 14.4 °F 7.0 °F 1023.2 in NNW 33.3 mph 33.3 mph 61 % 0.0 in 165.0 W/m2 CLR
15:32 14.4 °F 7.0 °F 1023.2 in NNW 48.1 mph 48.1 mph 61 % 0.0 in 172.0 W/m2 CLR
15:33 14.4 °F 7.0 °F 1023.2 in NNW 42.6 mph 42.6 mph 61 % 0.0 in 172.0 W/m2 CLR
15:38 14.4 °F 7.0 °F 1023.2 in NNW 38.9 mph 38.9 mph 61 % 0.0 in 132.0 W/m2 CLR
15:43 14.4 °F 7.0 °F 1023.2 in NNW 38.9 mph 38.9 mph 61 % 0.0 in 125.0 W/m2 CLR
15:48 13.9 °F 6.5 °F 1023.2 in NNW 42.6 mph 42.6 mph 61 % 0.0 in 113.0 W/m2 CLR
15:53 13.9 °F 6.5 °F 1023.2 in NNW 19.3 mph 19.3 mph 61 % 0.0 in 76.0 W/m2 CLR
15:58 13.9 °F 6.5 °F 1023.2 in NW 31.5 mph 31.5 mph 61 % 0.0 in 65.0 W/m2 FEW
16:03 13.9 °F 6.5 °F 1023.6 in North 31.5 mph 31.5 mph 61 % 0.0 in 70.0 W/m2 FEW
16:08 13.9 °F 6.5 °F 1023.6 in NW 31.5 mph 31.5 mph 61 % 0.0 in 77.0 W/m2 FEW
16:13 13.9 °F 6.2 °F 1023.9 in North 35.2 mph 35.2 mph 60 % 0.0 in 77.0 W/m2 FEW
16:18 13.9 °F 6.2 °F 1023.9 in North 38.9 mph 38.9 mph 60 % 0.0 in 72.0 W/m2 FEW
16:23 13.9 °F 6.2 °F 1023.9 in NNW 42.6 mph 42.6 mph 60 % 0.0 in 63.0 W/m2 FEW
16:28 13.3 °F 5.5 °F 1023.9 in NNW 42.6 mph 42.6 mph 59 % 0.0 in 56.0 W/m2 SCT
16:33 13.3 °F 5.5 °F 1023.6 in NNW 31.5 mph 31.5 mph 59 % 0.0 in 51.0 W/m2 SCT
16:38 13.3 °F 5.5 °F 1023.6 in North 24.1 mph 24.1 mph 59 % 0.0 in 46.0 W/m2 SCT
16:43 13.3 °F 5.2 °F 1023.9 in North 35.2 mph 35.2 mph 58 % 0.0 in 42.0 W/m2 BKN
16:48 13.3 °F 5.2 °F 1023.9 in NNW 31.5 mph 31.5 mph 58 % 0.0 in 32.0 W/m2 BKN
16:53 13.3 °F 5.2 °F 1023.9 in NNW 31.5 mph 31.5 mph 58 % 0.0 in 40.0 W/m2 BKN
16:58 13.3 °F 5.0 °F 1024.3 in NNW 35.2 mph 35.2 mph 57 % 0.0 in 39.0 W/m2 BKN
17:03 13.3 °F 5.0 °F 1024.3 in NW 31.5 mph 31.5 mph 57 % 0.0 in 35.0 W/m2 BKN
17:08 12.8 °F 4.7 °F 1024.6 in North 22.2 mph 22.2 mph 58 % 0.0 in 28.0 W/m2 BKN
17:13 12.8 °F 4.7 °F 1024.6 in NNW 37.0 mph 37.0 mph 58 % 0.0 in 16.0 W/m2 BKN
17:18 12.8 °F 4.7 °F 1024.6 in NW 31.5 mph 31.5 mph 58 % 0.0 in 9.0 W/m2 BKN
17:23 12.8 °F 4.7 °F 1024.6 in NNW 35.2 mph 35.2 mph 58 % 0.0 in 5.0 W/m2 OVC
17:28 12.8 °F 4.4 °F 1024.6 in NNW 40.7 mph 40.7 mph 57 % 0.0 in 0.0 W/m2 OVC
17:33 12.8 °F 4.2 °F 1024.6 in NNW 35.2 mph 35.2 mph 56 % 0.0 in 0.0 W/m2 OVC
17:38 12.8 °F 4.2 °F 1024.6 in NNW 33.3 mph 33.3 mph 56 % 0.0 in 0.0 W/m2 OVC
17:43 12.2 °F 3.4 °F 1024.6 in NNW 33.3 mph 33.3 mph 55 % 0.0 in 0.0 W/m2 OVC
17:48 12.2 °F 3.7 °F 1024.6 in NNW 40.7 mph 40.7 mph 56 % 0.0 in 0.0 W/m2 CLR
17:53 12.2 °F 3.7 °F 1024.9 in WNW 31.5 mph 31.5 mph 56 % 0.0 in 0.0 W/m2 CLR
17:58 12.2 °F 3.7 °F 1024.9 in NW 42.6 mph 42.6 mph 56 % 0.0 in 0.0 W/m2 CLR
18:03 11.7 °F 3.2 °F 1024.9 in WNW 22.2 mph 22.2 mph 56 % 0.0 in 0.0 W/m2 CLR
18:08 11.7 °F 3.2 °F 1024.9 in North 31.5 mph 31.5 mph 56 % 0.0 in 0.0 W/m2 CLR
18:13 11.7 °F 3.4 °F 1025.3 in NW 35.2 mph 35.2 mph 57 % 0.0 in 0.0 W/m2 CLR
18:18 11.7 °F 3.4 °F 1025.3 in NW 40.7 mph 40.7 mph 57 % 0.0 in 0.0 W/m2 CLR
18:19 11.7 °F 3.4 °F 1025.3 in WNW 40.7 mph 40.7 mph 57 % 0.0 in 0.0 W/m2 CLR
18:24 11.1 °F 3.2 °F 1025.3 in NW 30.6 mph 30.6 mph 58 % 0.0 in 0.0 W/m2 CLR
18:29 11.1 °F 3.2 °F 1025.3 in NW 33.3 mph 33.3 mph 58 % 0.0 in 0.0 W/m2 CLR
18:34 11.1 °F 3.4 °F 1025.6 in NNW 30.6 mph 31.5 mph 59 % 0.0 in 0.0 W/m2 CLR
18:35 11.1 °F 3.4 °F 1025.3 in NW 42.6 mph 42.6 mph 59 % 0.0 in 0.0 W/m2 CLR
18:40 11.1 °F 3.4 °F 1025.6 in NW 31.5 mph 31.5 mph 59 % 0.0 in 0.0 W/m2 CLR
18:45 11.1 °F 3.4 °F 1025.6 in NNW 27.4 mph 27.4 mph 59 % 0.0 in 0.0 W/m2 CLR
18:50 11.1 °F 3.4 °F 1025.6 in NNW 40.7 mph 40.7 mph 59 % 0.0 in 0.0 W/m2 CLR
18:55 11.1 °F 3.4 °F 1025.6 in NW 38.6 mph 38.6 mph 59 % 0.0 in 0.0 W/m2 CLR
19:00 11.1 °F 3.4 °F 1026.0 in NNW 46.3 mph 46.3 mph 59 % 0.0 in 0.0 W/m2 CLR
19:05 10.6 °F 2.9 °F 1026.0 in NNW 44.4 mph 44.4 mph 59 % 0.0 in 0.0 W/m2 CLR
19:10 10.6 °F 3.1 °F 1026.0 in NNW 38.9 mph 38.9 mph 60 % 0.0 in 0.0 W/m2 CLR
19:15 10.6 °F 3.1 °F 1026.0 in NW 44.4 mph 44.4 mph 60 % 0.0 in 0.0 W/m2 CLR
19:20 10.6 °F 3.1 °F 1026.3 in NNW 37.0 mph 37.0 mph 60 % 0.0 in 0.0 W/m2 CLR
19:25 10.6 °F 3.1 °F 1026.3 in North 30.6 mph 30.6 mph 60 % 0.0 in 0.0 W/m2 CLR
19:30 10.0 °F 2.6 °F 1026.3 in NW 42.6 mph 42.6 mph 60 % 0.0 in 0.0 W/m2 CLR
19:35 10.0 °F 2.6 °F 1026.6 in NNW 31.5 mph 31.5 mph 60 % 0.0 in 0.0 W/m2 CLR
19:40 10.0 °F 2.6 °F 1026.6 in NW 38.9 mph 38.9 mph 60 % 0.0 in 0.0 W/m2 CLR
19:45 10.0 °F 2.6 °F 1026.6 in NW 33.8 mph 33.8 mph 60 % 0.0 in 0.0 W/m2 CLR
19:50 10.0 °F 2.6 °F 1026.6 in NW 31.5 mph 31.5 mph 60 % 0.0 in 0.0 W/m2 CLR
19:55 9.4 °F 2.1 °F 1026.6 in NW 30.6 mph 30.6 mph 60 % 0.0 in 0.0 W/m2 CLR
20:00 9.4 °F 2.3 °F 1026.6 in NW 43.4 mph 43.4 mph 61 % 0.0 in 0.0 W/m2 CLR
20:05 9.4 °F 2.3 °F 1026.6 in NW 37.0 mph 37.0 mph 61 % 0.0 in 0.0 W/m2 CLR
20:10 9.4 °F 2.5 °F 1026.3 in NW 35.2 mph 35.2 mph 62 % 0.0 in 0.0 W/m2 CLR
20:15 9.4 °F 2.5 °F 1026.3 in NW 42.6 mph 42.6 mph 62 % 0.0 in 0.0 W/m2 CLR
20:20 9.4 °F 2.5 °F 1026.6 in NW 41.8 mph 41.8 mph 62 % 0.0 in 0.0 W/m2 CLR
20:25 9.4 °F 2.7 °F 1026.6 in NW 37.0 mph 37.0 mph 63 % 0.0 in 0.0 W/m2 CLR
20:30 8.9 °F 2.2 °F 1027.0 in NNW 40.7 mph 40.7 mph 63 % 0.0 in 0.0 W/m2 CLR
20:35 8.9 °F 2.2 °F 1027.0 in NW 32.2 mph 32.2 mph 63 % 0.0 in 0.0 W/m2 CLR
20:40 8.9 °F 2.2 °F 1027.0 in NNW 38.9 mph 38.9 mph 63 % 0.0 in 0.0 W/m2 CLR
20:45 8.9 °F 2.4 °F 1027.0 in NW 35.2 mph 35.2 mph 64 % 0.0 in 0.0 W/m2 CLR
20:50 8.9 °F 2.2 °F 1027.0 in NW 31.5 mph 31.5 mph 63 % 0.0 in 0.0 W/m2 CLR
20:51 8.9 °F 2.2 °F 1027.0 in NW 31.5 mph 31.5 mph 63 % 0.0 in 0.0 W/m2 CLR
20:56 8.9 °F 2.2 °F 1027.3 in North 31.5 mph 31.5 mph 63 % 0.0 in 0.0 W/m2 CLR
21:01 8.9 °F 2.0 °F 1027.0 in NW 25.9 mph 25.9 mph 62 % 0.0 in 0.0 W/m2 CLR
21:06 8.9 °F 2.0 °F 1027.0 in NW 35.2 mph 35.2 mph 62 % 0.0 in 0.0 W/m2 CLR
21:11 8.9 °F 2.0 °F 1027.0 in NNW 27.8 mph 27.8 mph 62 % 0.0 in 0.0 W/m2 CLR
21:16 8.9 °F 2.0 °F 1027.3 in WNW 37.0 mph 37.0 mph 62 % 0.0 in 0.0 W/m2 CLR
21:21 8.3 °F 1.4 °F 1027.3 in NW 33.8 mph 33.8 mph 62 % 0.0 in 0.0 W/m2 CLR
21:26 8.3 °F 1.4 °F 1027.3 in NW 37.0 mph 37.0 mph 62 % 0.0 in 0.0 W/m2 CLR
21:31 8.3 °F 1.4 °F 1027.3 in NNW 37.0 mph 37.0 mph 62 % 0.0 in 0.0 W/m2 CLR
21:36 8.3 °F 1.4 °F 1027.3 in NNW 33.3 mph 33.3 mph 62 % 0.0 in 0.0 W/m2 CLR
21:41 8.3 °F 1.4 °F 1027.3 in WNW 37.0 mph 37.0 mph 62 % 0.0 in 0.0 W/m2 CLR
21:46 8.3 °F 1.4 °F 1027.3 in NW 31.5 mph 31.5 mph 62 % 0.0 in 0.0 W/m2 CLR
21:51 8.3 °F 1.4 °F 1027.3 in NW 33.3 mph 33.3 mph 62 % 0.0 in 0.0 W/m2 CLR
21:56 8.3 °F 1.4 °F 1027.7 in NW 33.3 mph 33.3 mph 62 % 0.0 in 0.0 W/m2 CLR
22:01 8.3 °F 1.2 °F 1027.7 in NNW 29.6 mph 29.6 mph 61 % 0.0 in 0.0 W/m2 CLR
22:06 8.3 °F 1.2 °F 1027.7 in NW 31.5 mph 31.5 mph 61 % 0.0 in 0.0 W/m2 CLR
22:11 8.3 °F 1.2 °F 1027.7 in NW 27.8 mph 27.8 mph 61 % 0.0 in 0.0 W/m2 CLR
22:16 8.3 °F 1.2 °F 1027.7 in NW 29.6 mph 29.6 mph 61 % 0.0 in 0.0 W/m2 CLR
22:21 8.3 °F 1.2 °F 1027.7 in NW 31.5 mph 31.5 mph 61 % 0.0 in 0.0 W/m2 CLR
22:26 8.3 °F 1.2 °F 1027.7 in NW 31.5 mph 31.5 mph 61 % 0.0 in 0.0 W/m2 CLR
22:31 7.8 °F 0.5 °F 1027.7 in NW 25.9 mph 25.9 mph 60 % 0.0 in 0.0 W/m2 CLR
22:36 7.8 °F 0.5 °F 1027.7 in NW 20.4 mph 20.4 mph 60 % 0.0 in 0.0 W/m2 CLR
22:41 7.8 °F 0.3 °F 1027.7 in NW 33.3 mph 33.3 mph 59 % 0.0 in 0.0 W/m2 CLR
22:46 8.3 °F 0.6 °F 1027.7 in NNW 29.6 mph 29.6 mph 58 % 0.0 in 0.0 W/m2 CLR
22:47 8.3 °F 0.6 °F 1027.7 in NW 27.8 mph 27.8 mph 58 % 0.0 in 0.0 W/m2 CLR
22:52 8.3 °F 0.6 °F 1027.7 in WNW 25.9 mph 25.9 mph 58 % 0.0 in 0.0 W/m2 CLR
22:57 8.3 °F 0.6 °F 1027.7 in NW 33.3 mph 33.3 mph 58 % 0.0 in 0.0 W/m2 CLR
23:02 8.3 °F 0.6 °F 1027.7 in NW 33.3 mph 33.3 mph 58 % 0.0 in 0.0 W/m2 CLR
23:07 7.8 °F 0.0 °F 1027.7 in NW 24.1 mph 24.1 mph 58 % 0.0 in 0.0 W/m2 CLR
23:12 7.8 °F 0.3 °F 1028.0 in NW 35.2 mph 35.2 mph 59 % 0.0 in 0.0 W/m2 CLR
23:17 7.8 °F 0.3 °F 1028.0 in North 31.5 mph 31.5 mph 59 % 0.0 in 0.0 W/m2 CLR
23:22 7.8 °F 0.3 °F 1028.0 in NNW 29.0 mph 29.0 mph 59 % 0.0 in 0.0 W/m2 CLR
23:27 7.8 °F 0.5 °F 1028.0 in NW 25.9 mph 25.9 mph 60 % 0.0 in 0.0 W/m2 CLR
23:32 7.8 °F 0.3 °F 1028.0 in NW 33.3 mph 33.3 mph 59 % 0.0 in 0.0 W/m2 CLR
23:37 7.8 °F 0.5 °F 1027.7 in NW 25.7 mph 25.7 mph 60 % 0.0 in 0.0 W/m2 CLR
23:42 7.8 °F 0.5 °F 1028.0 in NW 31.5 mph 31.5 mph 60 % 0.0 in 0.0 W/m2 CLR
23:47 7.8 °F 0.5 °F 1028.0 in WNW 25.9 mph 25.9 mph 60 % 0.0 in 0.0 W/m2 CLR
23:52 7.8 °F 0.3 °F 1028.0 in NW 31.5 mph 31.5 mph 59 % 0.0 in 0.0 W/m2 CLR
23:57 7.8 °F 0.3 °F 1028.0 in NW 31.5 mph 31.5 mph 59 % 0.0 in 0.0 W/m2 CLR
Lo Temps de Massalio
Compliments of Weather Underground - 1.25 mb